sat.trackr.live / text

‹ back to catalog

STARLINK-5209

NORAD 54061 · 2022-136L

PAYLOAD ACTIVE UNKNOWN

§ Identity

Operator
Country
US
Launch date
2022-10-20
Launch site
AFETR
Launch vehicle
Mass (kg)
RCS (m²)

Purposes: comms

External: N2YO · Heavens-Above · Gunter

§ Orbital elements

Epoch: 2026-05-24T21:23:57.669216Z

Period
95.44 min
Inclination
53.2131°
Eccentricity
0.0001259
Mean motion
15.08841123 rev/d
Perigee alt
538.9 km
Apogee alt
540.6 km
Semi-major
6,917.9 km
B*
7.7957e-5
RAAN
326.6463°
Arg perigee
89.1100°
Mean anomaly
271.0036°
Rev number
19,884

§ Raw data

STARLINK-52091 54061U 22136L   26144.89163969  .00000953  00000+0  77957-4 0  99932 54061  53.2131 326.6463 0001259  89.1100 271.0036 15.08841123198841

JSON: /api/v1/satellites/54061 · /tle

For live sub-satellite position, see the globe view (requires WebGL).

§ Visibility from observer

Set your observer location to see the next 7 days of passes ≥ 10°. The values pass through the URL so the page stays shareable.

No JS? Fill the form by hand. The geolocation button needs JavaScript.